Year,Month,Day,Hour,Minute,Value (Times are PST for temperature in C)
2010,12,12,14,39,11.10
2010,12,12,14,40,10.90
2010,12,12,14,41,10.90
2010,12,12,14,42,10.90
2010,12,12,14,43,10.90
2010,12,12,14,44,10.90
2010,12,12,14,45,10.90
2010,12,12,14,46,10.90
2010,12,12,14,47,10.90
2010,12,12,14,48,10.90
2010,12,12,14,49,10.90
2010,12,12,14,50,10.90
2010,12,12,14,51,10.90
2010,12,12,14,52,10.90
2010,12,12,14,53,10.90
2010,12,12,14,54,10.90
2010,12,12,14,55,10.90
2010,12,12,14,56,10.90
2010,12,12,14,57,10.90
2010,12,12,14,58,10.90
2010,12,12,14,59,10.80
2010,12,12,15,00,10.80
2010,12,12,15,01,10.80
2010,12,12,15,02,10.80
2010,12,12,15,03,10.80
2010,12,12,15,04,10.80
2010,12,12,15,05,10.80
2010,12,12,15,06,10.80
2010,12,12,15,07,10.80
2010,12,12,15,08,10.80
2010,12,12,15,09,10.80
2010,12,12,15,10,10.70
2010,12,12,15,11,10.70
2010,12,12,15,12,10.70
2010,12,12,15,13,10.70
2010,12,12,15,14,10.70
2010,12,12,15,15,10.70
2010,12,12,15,16,10.70
2010,12,12,15,17,10.70
2010,12,12,15,18,10.70
2010,12,12,15,19,10.60
2010,12,12,15,20,10.60
2010,12,12,15,21,10.70
2010,12,12,15,22,10.70
2010,12,12,15,23,10.60
2010,12,12,15,24,10.60
2010,12,12,15,25,10.60
2010,12,12,15,26,10.60
2010,12,12,15,27,10.60
2010,12,12,15,28,10.60
2010,12,12,15,29,10.60
2010,12,12,15,30,10.60
2010,12,12,15,31,10.60
2010,12,12,15,32,10.60
2010,12,12,15,33,10.60
2010,12,12,15,34,10.60
2010,12,12,15,35,10.60
2010,12,12,15,36,10.60
2010,12,12,15,37,10.60
2010,12,12,15,38,10.60
2010,12,12,15,39,10.60
2010,12,12,15,40,10.60
2010,12,12,15,41,10.60
2010,12,12,15,42,10.60
2010,12,12,15,43,10.60
2010,12,12,15,44,10.60
2010,12,12,15,45,10.60
2010,12,12,15,46,10.60
2010,12,12,15,47,10.60
2010,12,12,15,48,10.60
2010,12,12,15,49,10.60
2010,12,12,15,50,10.60
2010,12,12,15,51,10.60
2010,12,12,15,52,10.60
2010,12,12,15,53,10.60
2010,12,12,15,54,10.60
2010,12,12,15,55,10.60
2010,12,12,15,56,10.60
2010,12,12,15,57,10.60
2010,12,12,15,58,10.60
2010,12,12,15,59,10.60
2010,12,12,16,00,10.50
2010,12,12,16,01,10.40
2010,12,12,16,02,10.40
2010,12,12,16,03,10.40
2010,12,12,16,04,10.40
2010,12,12,16,05,10.40
2010,12,12,16,06,10.40
2010,12,12,16,07,10.40
2010,12,12,16,08,10.40
2010,12,12,16,09,10.40
2010,12,12,16,10,10.40
2010,12,12,16,11,10.40
2010,12,12,16,12,10.40
2010,12,12,16,13,10.40
2010,12,12,16,14,10.40
2010,12,12,16,15,10.40
2010,12,12,16,16,10.40
2010,12,12,16,17,10.40
2010,12,12,16,18,10.40
2010,12,12,16,19,10.40
2010,12,12,16,20,10.40
2010,12,12,16,21,10.40
2010,12,12,16,22,10.40
2010,12,12,16,23,10.40
2010,12,12,16,24,10.40
2010,12,12,16,25,10.40
2010,12,12,16,26,10.40
2010,12,12,16,27,10.40
2010,12,12,16,28,10.40
2010,12,12,16,29,10.40
2010,12,12,16,30,10.40
2010,12,12,16,31,10.40
2010,12,12,16,32,10.40
2010,12,12,16,33,10.40
2010,12,12,16,34,10.40
2010,12,12,16,35,10.40
2010,12,12,16,36,10.40
2010,12,12,16,37,10.40
2010,12,12,16,38,10.40
2010,12,12,16,39,10.40
2010,12,12,16,40,10.40
2010,12,12,16,41,10.40
2010,12,12,16,42,10.40
2010,12,12,16,43,10.40
2010,12,12,16,44,10.40
2010,12,12,16,45,10.40
2010,12,12,16,46,10.40
2010,12,12,16,47,10.40
2010,12,12,16,48,10.40
2010,12,12,16,49,10.40
2010,12,12,16,50,10.40
2010,12,12,16,51,10.40
2010,12,12,16,52,10.40
2010,12,12,16,53,10.40
2010,12,12,16,54,10.40
2010,12,12,16,55,10.40
2010,12,12,16,56,10.40
2010,12,12,16,57,10.40
2010,12,12,16,58,10.40
2010,12,12,16,59,10.40
2010,12,12,17,00,10.40
2010,12,12,17,01,10.40
2010,12,12,17,02,10.40
2010,12,12,17,03,10.40
2010,12,12,17,04,10.40
2010,12,12,17,05,10.40
2010,12,12,17,06,10.40
2010,12,12,17,07,10.40
2010,12,12,17,08,10.40
2010,12,12,17,09,10.40
2010,12,12,17,10,10.40
2010,12,12,17,11,10.40
2010,12,12,17,12,10.40
2010,12,12,17,13,10.40
2010,12,12,17,14,10.40
2010,12,12,17,15,10.30
2010,12,12,17,16,10.30
2010,12,12,17,17,10.30
2010,12,12,17,18,10.30
2010,12,12,17,19,10.30
2010,12,12,17,20,10.30
2010,12,12,17,21,10.30
2010,12,12,17,22,10.30
2010,12,12,17,23,10.30
2010,12,12,17,24,10.30
2010,12,12,17,25,10.30
2010,12,12,17,26,10.30
2010,12,12,17,27,10.30
2010,12,12,17,28,10.30
2010,12,12,17,29,10.30
2010,12,12,17,30,10.30
2010,12,12,17,31,10.20
2010,12,12,17,32,10.20
2010,12,12,17,33,10.20
2010,12,12,17,34,10.20
2010,12,12,17,35,10.20
2010,12,12,17,36,10.20
2010,12,12,17,37,10.20
2010,12,12,17,38,10.20
2010,12,12,17,39,10.20
2010,12,12,17,40,10.20
2010,12,12,17,41,10.20
2010,12,12,17,42,10.20
2010,12,12,17,43,10.20
2010,12,12,17,44,10.20
2010,12,12,17,45,10.20
2010,12,12,17,46,10.10
2010,12,12,17,47,10.10
2010,12,12,17,48,10.10
2010,12,12,17,49,10.10
2010,12,12,17,50,10.10
2010,12,12,17,51,10.10
2010,12,12,17,52,10.10
2010,12,12,17,53,10.10
2010,12,12,17,54,10.10
2010,12,12,17,55,10.10
2010,12,12,17,56,10.10
2010,12,12,17,57,10.10
2010,12,12,17,58,10.10
2010,12,12,17,59,10.10
2010,12,12,18,00,10.10
2010,12,12,18,01,10.10
2010,12,12,18,02,10.10
2010,12,12,18,03,10.10
2010,12,12,18,04,10.10
2010,12,12,18,05,10.10
2010,12,12,18,06,10.10
2010,12,12,18,07,10.10
2010,12,12,18,08,10.10
2010,12,12,18,09,10.10
2010,12,12,18,10,10.10
2010,12,12,18,11,10.10
2010,12,12,18,12,9.90
2010,12,12,18,13,9.90
2010,12,12,18,14,9.90
2010,12,12,18,15,9.90
2010,12,12,18,16,9.90
2010,12,12,18,17,9.90
2010,12,12,18,18,9.90
2010,12,12,18,19,9.90
2010,12,12,18,20,9.90
2010,12,12,18,21,9.90
2010,12,12,18,22,9.90
2010,12,12,18,23,9.90
2010,12,12,18,24,9.90
2010,12,12,18,25,9.90
2010,12,12,18,26,9.90
2010,12,12,18,27,9.90
2010,12,12,18,28,9.90
2010,12,12,18,29,9.90
2010,12,12,18,30,9.90
2010,12,12,18,31,9.90
2010,12,12,18,32,9.90
2010,12,12,18,33,9.90
2010,12,12,18,34,9.90
2010,12,12,18,35,9.90
2010,12,12,18,36,9.90
2010,12,12,18,37,9.90
2010,12,12,18,38,9.90
2010,12,12,18,39,9.90
2010,12,12,18,40,9.90
2010,12,12,18,41,9.90
2010,12,12,18,42,9.90
2010,12,12,18,43,9.90
2010,12,12,18,44,9.90
2010,12,12,18,45,9.90
2010,12,12,18,46,9.90
2010,12,12,18,47,9.90
2010,12,12,18,48,9.90
2010,12,12,18,49,9.90
2010,12,12,18,50,9.90
2010,12,12,18,51,9.90
2010,12,12,18,52,9.90
2010,12,12,18,53,9.90
2010,12,12,18,54,9.90
2010,12,12,18,55,9.90
2010,12,12,18,56,9.90
2010,12,12,18,57,9.90
2010,12,12,18,58,9.90
2010,12,12,18,59,9.90
2010,12,12,19,00,9.90
2010,12,12,19,01,9.90
2010,12,12,19,02,9.80
2010,12,12,19,03,9.80
2010,12,12,19,04,9.80
2010,12,12,19,05,9.80
2010,12,12,19,06,9.80
2010,12,12,19,07,9.80
2010,12,12,19,08,9.80
2010,12,12,19,09,9.80
2010,12,12,19,10,9.80
2010,12,12,19,11,9.80
2010,12,12,19,12,9.80
2010,12,12,19,13,9.80
2010,12,12,19,14,9.80
2010,12,12,19,15,9.80
2010,12,12,19,16,9.80
2010,12,12,19,17,9.80
2010,12,12,19,18,9.80
2010,12,12,19,19,9.80
2010,12,12,19,20,9.80
2010,12,12,19,21,9.80
2010,12,12,19,22,9.80
2010,12,12,19,23,9.70
2010,12,12,19,24,9.70
2010,12,12,19,25,9.70
2010,12,12,19,26,9.70
2010,12,12,19,27,9.70
2010,12,12,19,28,9.70
2010,12,12,19,29,9.70
2010,12,12,19,30,9.70
2010,12,12,19,31,9.70
2010,12,12,19,32,9.70
2010,12,12,19,33,9.70
2010,12,12,19,34,9.70
2010,12,12,19,35,9.70
2010,12,12,19,36,9.70
2010,12,12,19,37,9.70
2010,12,12,19,38,9.70
2010,12,12,19,39,9.70
2010,12,12,19,40,9.70
2010,12,12,19,41,9.70
2010,12,12,19,42,9.70
2010,12,12,19,43,9.70
2010,12,12,19,44,9.70
2010,12,12,19,45,9.70
2010,12,12,19,46,9.70
2010,12,12,19,47,9.70
2010,12,12,19,48,9.70
2010,12,12,19,49,9.70
2010,12,12,19,50,9.70
2010,12,12,19,51,9.70
2010,12,12,19,52,9.70
2010,12,12,19,53,9.70
2010,12,12,19,54,9.70
2010,12,12,19,55,9.70
2010,12,12,19,56,9.70
2010,12,12,19,57,9.70
2010,12,12,19,58,9.70
2010,12,12,19,59,9.70
2010,12,12,20,00,9.70
2010,12,12,20,01,9.70
2010,12,12,20,02,9.70
2010,12,12,20,03,9.70
2010,12,12,20,04,9.70
2010,12,12,20,05,9.70
2010,12,12,20,06,9.70
2010,12,12,20,07,9.70
2010,12,12,20,08,9.70
2010,12,12,20,09,9.70
2010,12,12,20,10,9.70
2010,12,12,20,11,9.70
2010,12,12,20,12,9.70
2010,12,12,20,13,9.70
2010,12,12,20,14,9.70
2010,12,12,20,15,9.70
2010,12,12,20,16,9.70
2010,12,12,20,17,9.70
2010,12,12,20,18,9.70
2010,12,12,20,19,9.70
2010,12,12,20,20,9.70
2010,12,12,20,21,9.70
2010,12,12,20,22,9.70
2010,12,12,20,23,9.70
2010,12,12,20,24,9.70
2010,12,12,20,25,9.70
2010,12,12,20,26,9.70
2010,12,12,20,27,9.70
2010,12,12,20,28,9.70
2010,12,12,20,29,9.70
2010,12,12,20,30,9.60
2010,12,12,20,31,9.60
2010,12,12,20,32,9.50
2010,12,12,20,33,9.50
2010,12,12,20,34,9.40
2010,12,12,20,35,9.30
2010,12,12,20,36,9.30
2010,12,12,20,37,9.20
2010,12,12,20,38,9.20
2010,12,12,20,39,9.20
2010,12,12,20,40,9.20
2010,12,12,20,41,9.20
2010,12,12,20,42,9.20
2010,12,12,20,43,9.20
2010,12,12,20,44,9.20
2010,12,12,20,45,9.20
2010,12,12,20,46,9.20
2010,12,12,20,47,9.20
2010,12,12,20,48,9.20
2010,12,12,20,49,9.20
2010,12,12,20,50,9.20
2010,12,12,20,51,9.20
2010,12,12,20,52,9.20
2010,12,12,20,53,9.20
2010,12,12,20,54,9.20
2010,12,12,20,55,9.20
2010,12,12,20,56,9.20
2010,12,12,20,57,9.20
2010,12,12,20,58,9.20
2010,12,12,20,59,9.20
2010,12,12,21,00,9.20
2010,12,12,21,01,9.20
2010,12,12,21,02,9.20
2010,12,12,21,03,9.20
2010,12,12,21,04,9.20
2010,12,12,21,05,9.20
2010,12,12,21,06,9.20
2010,12,12,21,07,9.20
2010,12,12,21,08,9.20
2010,12,12,21,09,9.20
2010,12,12,21,10,9.20
2010,12,12,21,11,9.20
2010,12,12,21,12,9.30
2010,12,12,21,13,9.30
2010,12,12,21,14,9.30
2010,12,12,21,15,9.30
2010,12,12,21,16,9.30
2010,12,12,21,17,9.20
2010,12,12,21,18,9.20
2010,12,12,21,19,9.20
2010,12,12,21,20,9.20
2010,12,12,21,21,9.20
2010,12,12,21,22,9.20
2010,12,12,21,23,9.20
2010,12,12,21,24,9.20
2010,12,12,21,25,9.20
2010,12,12,21,26,9.20
2010,12,12,21,27,9.20
2010,12,12,21,28,9.20
2010,12,12,21,29,9.20
2010,12,12,21,30,9.20
2010,12,12,21,31,9.20
2010,12,12,21,32,9.20
2010,12,12,21,33,9.20
2010,12,12,21,34,9.20
2010,12,12,21,35,9.20
2010,12,12,21,36,9.20
2010,12,12,21,37,9.20
2010,12,12,21,38,9.20
2010,12,12,21,39,9.20
2010,12,12,21,40,9.20
2010,12,12,21,41,9.30
2010,12,12,21,42,9.30
2010,12,12,21,43,9.30
2010,12,12,21,44,9.30
2010,12,12,21,45,9.30
2010,12,12,21,46,9.30
2010,12,12,21,47,9.30
2010,12,12,21,48,9.30
2010,12,12,21,49,9.30
2010,12,12,21,50,9.20
2010,12,12,21,51,9.20
2010,12,12,21,52,9.20
2010,12,12,21,53,9.20
2010,12,12,21,54,9.20
2010,12,12,21,55,9.20
2010,12,12,21,56,9.20
2010,12,12,21,57,9.20
2010,12,12,21,58,9.20
2010,12,12,21,59,9.20
2010,12,12,22,00,9.20
2010,12,12,22,01,9.20
2010,12,12,22,02,9.20
2010,12,12,22,03,9.20
2010,12,12,22,04,9.20
2010,12,12,22,05,9.20
2010,12,12,22,06,9.20
2010,12,12,22,07,9.20
2010,12,12,22,08,9.20
